Overview Statistics Trail Chart Weather Telemetry Raw packets
 

This is the latest recevied weather packets stored in our database for station/object KB1RMA-4. If no packets are shown the sender has not sent any weather packets the latest 10 day(s).

<< 49 50 51 52 53 54 55 >>
Time Temp. Humidity Pressure Rain* Wind** Luminosity Snow
1788302128 18.89° C 79% 1018.8 hPa 0 mm - 30 W/m² -
1788301823 18.89° C 80% 1018.8 hPa 0 mm - 36 W/m² -
1788301519 18.89° C 81% 1018.8 hPa 0 mm - 32 W/m² -
1788301215 18.89° C 82% 1019.2 hPa 0 mm - 31 W/m² -
1788300910 18.89° C 83% 1019 hPa 0 mm - 44 W/m² -
1788300606 18.89° C 84% 1018.8 hPa 0 mm - 57 W/m² -
1788300305 18.89° C 85% 1018.8 hPa 0 mm - 64 W/m² -
1788300004 18.89° C 86% 1018.8 hPa 0 mm - 62 W/m² -
1788299703 18.89° C 86% 1018.7 hPa 0 mm - 65 W/m² -
1788299402 18.89° C 86% 1018.9 hPa 0 mm - 88 W/m² -
1788299101 18.89° C 86% 1018.8 hPa 0 mm - 103 W/m² -
1788298795 18.89° C 86% 1018.7 hPa 0 mm - 87 W/m² -
1788298490 18.89° C 86% 1018.7 hPa 0 mm - 75 W/m² -
1788298189 18.89° C 86% 1018.7 hPa 0 mm - 67 W/m² -
1788297885 18.89° C 86% 1018.8 hPa 0 mm - 49 W/m² -
1788297582 18.89° C 86% 1018.8 hPa 0 mm - 34 W/m² -
1788297277 18.89° C 86% 1018.6 hPa 0 mm - 30 W/m² -
1788296973 18.89° C 86% 1018.8 hPa 0 mm - 35 W/m² -
1788296669 18.89° C 85% 1018.6 hPa 0 mm - 47 W/m² -
1788296365 19.44° C 85% 1018.6 hPa 0 mm - 70 W/m² -
1788296065 19.44° C 85% 1018.8 hPa 0 mm - 75 W/m² -
1788295759 19.44° C 85% 1018.5 hPa 0 mm - 107 W/m² -
1788295456 19.44° C 85% 1018.6 hPa 0 mm - 204 W/m² -
1788295155 18.89° C 85% 1018.6 hPa 0 mm - 238 W/m² -
1788294850 18.89° C 85% 1018.3 hPa 0 mm - 196 W/m² -

* Rain latest hour (hover to see other rain measurements)
** Current wind speed in m/s (hover to see current wind gust speed)